When you browse on this site, cookies collect data to enhance your experience and personalize the content and advertising you see.
Visit our Privacy Policy to learn more. By continuing to use the site, you agree to this use of cookies and data.
  • In Slovakia
  • List of Countries
  • For 7 days
  • Water Temperature
  • Satellite Maps
  • Weather Map
  • Weather Widgets
  • user-avatar
    Login

    Hourly Weather Potsdam

    Today, 17 January, Thursday

    Time Temperature Precipitation Wind Pressure Humidity
    00:00 +2°C° 0 mm 5 mps 746 mmHg 79%
    01:00 +2°C° 0 mm 3 mps 746 mmHg 83%
    02:00 +1°C° 0 mm 4 mps 745 mmHg 82%
    03:00 +1°C° 0 mm 5 mps 745 mmHg 81%
    04:00 +1°C° 0 mm 5 mps 745 mmHg 80%
    05:00 +2°C° 0.1 mm 6 mps 745 mmHg 79%
    06:00 +2°C° 0.1 mm 6 mps 745 mmHg 79%
    07:00 +3°C° 0 mm 4 mps 745 mmHg 83%
    08:00 +4°C° 0 mm 4 mps 745 mmHg 82%
    09:00 +3°C° 0 mm 5 mps 746 mmHg 80%
    10:00 +3°C° 0 mm 5 mps 746 mmHg 79%
    11:00 +5°C° 0 mm 5 mps 746 mmHg 75%
    12:00 +5°C° 0 mm 5 mps 746 mmHg 71%
    13:00 +6°C° 0 mm 5 mps 746 mmHg 66%
    14:00 +5°C° 0 mm 4 mps 745 mmHg 68%
    15:00 +5°C° 0 mm 4 mps 745 mmHg 69%
    16:00 +5°C° 0 mm 3 mps 745 mmHg 71%
    17:00 +4°C° 1 mm 4 mps 745 mmHg 75%
    18:00 +3°C° 1 mm 5 mps 745 mmHg 78%
    19:00 +3°C° 1 mm 5 mps 745 mmHg 82%
    20:00 +2°C° 0.2 mm 5 mps 745 mmHg 81%
    21:00 +2°C° 0.2 mm 6 mps 746 mmHg 81%
    22:00 +1°C° 0.2 mm 6 mps 746 mmHg 80%
    23:00 +1°C° 0.2 mm 6 mps 747 mmHg 80%

    Tomorrow, 18 January, Friday

    Time Temperature Precipitation Wind Pressure Humidity
    00:00 -1°C° 0.2 mm 6 mps 748 mmHg 80%
    01:00 -1°C° 0.2 mm 6 mps 749 mmHg 81%
    02:00 -1°C° 0.1 mm 5 mps 750 mmHg 80%
    03:00 -1°C° 0.1 mm 5 mps 751 mmHg 79%
    04:00 -2°C° 0.1 mm 4 mps 752 mmHg 79%
    05:00 -2°C° 0 mm 4 mps 753 mmHg 79%
    06:00 -3°C° 0 mm 4 mps 754 mmHg 79%
    07:00 -3°C° 0 mm 4 mps 755 mmHg 79%
    08:00 -3°C° 0 mm 4 mps 756 mmHg 77%
    09:00 -3°C° 0 mm 4 mps 757 mmHg 76%
    10:00 -2°C° 0 mm 4 mps 758 mmHg 75%
    11:00 -2°C° 0 mm 4 mps 758 mmHg 72%
    12:00 -1°C° 0 mm 4 mps 758 mmHg 68%
    13:00 0°C° 0 mm 4 mps 759 mmHg 65%
    14:00 0°C° 0 mm 3 mps 759 mmHg 66%
    15:00 0°C° 0 mm 3 mps 759 mmHg 67%
    16:00 0°C° 0 mm 3 mps 759 mmHg 68%
    17:00 0°C° 0 mm 3 mps 759 mmHg 71%
    18:00 -1°C° 0 mm 3 mps 760 mmHg 75%
    19:00 -1°C° 0 mm 3 mps 760 mmHg 78%
    20:00 -1°C° 0 mm 3 mps 760 mmHg 80%
    21:00 -1°C° 0 mm 3 mps 760 mmHg 81%
    22:00 -2°C° 0 mm 3 mps 761 mmHg 83%
    23:00 -2°C° 0 mm 2 mps 761 mmHg 84%

    Day after tomorrow, 19 January, Saturday

    Time Temperature Precipitation Wind Pressure Humidity
    00:00 -2°C° 0 mm 2 mps 761 mmHg 85%
    01:00 -2°C° 0 mm 2 mps 761 mmHg 86%
    02:00 -2°C° 0 mm 2 mps 761 mmHg 86%
    03:00 0°C° 0 mm 1 mps 761 mmHg 86%
    04:00 0°C° 0 mm 1 mps 761 mmHg 86%
    05:00 0°C° 0 mm 1 mps 761 mmHg 86%
    06:00 0°C° 0 mm 1 mps 761 mmHg 85%
    07:00 -1°C° 0 mm 1 mps 761 mmHg 85%
    08:00 0°C° 0 mm 1 mps 761 mmHg 82%
    09:00 0°C° 0 mm 1 mps 761 mmHg 78%
    10:00 +1°C° 0 mm 1 mps 762 mmHg 75%
    11:00 +2°C° 0 mm 1 mps 761 mmHg 71%
    12:00 +3°C° 0 mm 1 mps 761 mmHg 66%
    13:00 +3°C° 0 mm 1 mps 761 mmHg 62%
    14:00 +3°C° 0 mm 1 mps 760 mmHg 65%
    15:00 +2°C° 0 mm 1 mps 760 mmHg 68%
    16:00 +2°C° 0 mm 1 mps 760 mmHg 71%
    17:00 +1°C° 0 mm 1 mps 760 mmHg 72%
    18:00 -2°C° 0 mm 2 mps 760 mmHg 73%
    19:00 -2°C° 0 mm 2 mps 760 mmHg 75%
    20:00 -2°C° 0 mm 2 mps 760 mmHg 74%
    21:00 -2°C° 0 mm 2 mps 760 mmHg 72%
    22:00 -3°C° 0 mm 2 mps 760 mmHg 71%
    23:00 -3°C° 0 mm 2 mps 760 mmHg 72%

    20 January, Sunday

    Time Temperature Precipitation Wind Pressure Humidity
    00:00 -3°C° 0 mm 2 mps 759 mmHg 72%
    01:00 -3°C° 0 mm 2 mps 759 mmHg 72%
    02:00 -3°C° 0 mm 2 mps 759 mmHg 72%
    03:00 -1°C° 0 mm 1 mps 759 mmHg 71%
    04:00 -1°C° 0 mm 1 mps 759 mmHg 71%
    05:00 -1°C° 0 mm 1 mps 759 mmHg 70%
    06:00 -1°C° 0 mm 1 mps 759 mmHg 70%
    07:00 -2°C° 0 mm 1 mps 759 mmHg 69%
    08:00 -1°C° 0 mm 1 mps 759 mmHg 67%
    09:00 -1°C° 0 mm 1 mps 759 mmHg 65%
    10:00 0°C° 0 mm 1 mps 759 mmHg 63%
    11:00 +1°C° 0 mm 1 mps 759 mmHg 60%
    12:00 +2°C° 0 mm 1 mps 760 mmHg 57%
    13:00 +2°C° 0 mm 1 mps 760 mmHg 54%
    14:00 +2°C° 0 mm 1 mps 760 mmHg 58%
    15:00 +1°C° 0 mm 1 mps 760 mmHg 62%
    16:00 0°C° 0 mm 1 mps 760 mmHg 66%
    17:00 0°C° 0 mm 1 mps 761 mmHg 69%
    18:00 -1°C° 0 mm 1 mps 761 mmHg 72%
    19:00 -1°C° 0 mm 1 mps 761 mmHg 74%
    20:00 -2°C° 0 mm 0 mps 762 mmHg 75%
    21:00 -2°C° 0 mm 0 mps 762 mmHg 76%
    22:00 -2°C° 0 mm 0 mps 763 mmHg 77%
    23:00 -2°C° 0 mm 0 mps 763 mmHg 77%

    21 January, Monday

    Time Temperature Precipitation Wind Pressure Humidity
    00:00 -2°C° 0 mm 0 mps 763 mmHg 77%
    01:00 -2°C° 0 mm 0 mps 763 mmHg 77%
    02:00 -2°C° 0 mm 0 mps 763 mmHg 77%
    03:00 -3°C° 0 mm 0 mps 763 mmHg 77%
    04:00 -3°C° 0 mm 0 mps 763 mmHg 77%
    05:00 -3°C° 0 mm 0 mps 763 mmHg 77%
    06:00 -3°C° 0 mm 0 mps 764 mmHg 77%
    07:00 -3°C° 0 mm 0 mps 764 mmHg 77%
    08:00 -1°C° 0 mm 1 mps 764 mmHg 74%
    09:00 -1°C° 0 mm 1 mps 764 mmHg 71%
    10:00 0°C° 0 mm 1 mps 764 mmHg 68%
    11:00 0°C° 0 mm 1 mps 764 mmHg 63%
    12:00 +1°C° 0 mm 1 mps 764 mmHg 59%
    13:00 +1°C° 0 mm 2 mps 763 mmHg 55%
    14:00 -1°C° 0 mm 2 mps 763 mmHg 57%
    15:00 -1°C° 0 mm 2 mps 763 mmHg 59%
    16:00 -2°C° 0 mm 2 mps 762 mmHg 62%
    17:00 -2°C° 0 mm 2 mps 762 mmHg 64%
    18:00 -3°C° 0 mm 2 mps 762 mmHg 66%
    19:00 -3°C° 0 mm 2 mps 762 mmHg 68%
    20:00 -3°C° 0 mm 2 mps 761 mmHg 69%
    21:00 -4°C° 0 mm 2 mps 761 mmHg 71%
    22:00 -4°C° 0 mm 2 mps 761 mmHg 72%
    23:00 -4°C° 0 mm 2 mps 761 mmHg 73%

    22 January, Tuesday

    Time Temperature Precipitation Wind Pressure Humidity
    00:00 -4°C° 0 mm 2 mps 760 mmHg 74%
    01:00 -4°C° 0 mm 2 mps 760 mmHg 75%
    02:00 -4°C° 0 mm 2 mps 759 mmHg 75%
    03:00 -4°C° 0 mm 2 mps 759 mmHg 76%
    04:00 -2°C° 0 mm 1 mps 758 mmHg 76%
    05:00 -4°C° 0 mm 2 mps 758 mmHg 77%
    06:00 -4°C° 0 mm 2 mps 758 mmHg 77%
    07:00 -5°C° 0 mm 2 mps 757 mmHg 78%
    08:00 -4°C° 0 mm 2 mps 757 mmHg 75%
    09:00 -3°C° 0 mm 2 mps 757 mmHg 72%
    10:00 -3°C° 0 mm 2 mps 756 mmHg 69%
    11:00 -2°C° 0 mm 2 mps 756 mmHg 65%
    12:00 -1°C° 0 mm 2 mps 755 mmHg 60%
    13:00 0°C° 0 mm 3 mps 754 mmHg 56%
    14:00 -1°C° 0 mm 3 mps 754 mmHg 59%
    15:00 -1°C° 0 mm 3 mps 753 mmHg 62%
    16:00 -2°C° 0 mm 3 mps 753 mmHg 65%
    17:00 -2°C° 0 mm 3 mps 753 mmHg 67%
    18:00 -2°C° 0 mm 3 mps 753 mmHg 70%
    19:00 -4°C° 0 mm 3 mps 752 mmHg 72%
    20:00 -4°C° 0 mm 3 mps 752 mmHg 70%
    21:00 -4°C° 0 mm 3 mps 752 mmHg 69%
    22:00 -4°C° 0 mm 3 mps 752 mmHg 67%
    23:00 -4°C° 0 mm 3 mps 752 mmHg 67%
    Show more